Provo, UT

3:53 AM MDT on May 26, 2017 (GMT -0600)
Provo Municipal

Weather History for KPVU - August, 2013

Change the Weather History Date:

Wednesday, August 28, 2013

  Actual Average Record
Temperature  
Mean Temperature 73 °F -  
Max Temperature 87 °F 82 °F 93 °F (2012)
Min Temperature 59 °F 54 °F 42 °F (2004)
Cooling Degree Days 8    
Growing Degree Days 23 (Base 50)    
Moisture  
Dew Point 57 °F    
Average Humidity 71    
Maximum Humidity 94    
Minimum Humidity 25    
Precipitation  
Precipitation 0.32 in - - ()
Sea Level Pressure  
Sea Level Pressure 30.13 in    
Wind  
Wind Speed 4 mph (SE)    
Max Wind Speed 17 mph    
Max Gust Speed 28 mph    
Visibility 12 miles    
Events      
Averages and records for this station are not official NWS values.
T = Trace of Precipitation, MM = Missing Value Source: NWS Daily Summary

Daily Weather History Graph

Daily Weather History Graph

Search for Another Location

Airport or City:

Trip Planner

Search our weather history database for the weather conditions in past years. The results will help you decide how hot, cold, wet, or windy it might be!

Date:

Astronomy

Aug. 28, 2013 Rise Set
Actual Time 6:50 AM MDT 8:04 PM MDT
Civil Twilight 6:22 AM MDT 8:32 PM MDT
Nautical Twilight 5:49 AM MDT 9:05 PM MDT
Astronomical Twilight 5:13 AM MDT 9:41 PM MDT
Moon 12:01 AM MDT (8/28) 2:45 PM MDT (8/28)
Length of Visible Light 14h 09m
Length of Day
13h 13m
Waning Gibbous, 47% of the Moon is Illuminated
Aug 28
Waning Gibbous
Sep 5
New
Sep 12
First Quarter
Sep 19
Full
Sep 26
Last Quarter

Hourly Weather History & Observations

Time (MDT) Temp. Heat Index Dew Point Humidity Pressure Visibility Wind Dir Wind Speed Gust Speed Precip Events Conditions
12:15 AM 62.6 °F - 59.0 °F 88% 30.12 in 10.0 mi Calm Calm - N/A   Clear
12:35 AM 62.6 °F - 59.0 °F 88% 30.12 in 10.0 mi South 5.8 mph - N/A   Clear
12:55 AM 62.6 °F - 59.0 °F 88% 30.12 in 10.0 mi South 3.5 mph - N/A   Clear
1:15 AM 60.8 °F - 57.2 °F 88% 30.12 in 10.0 mi South 5.8 mph - N/A   Clear
1:35 AM 60.8 °F - 59.0 °F 94% 30.12 in 10.0 mi Calm Calm - N/A   Clear
1:55 AM 60.8 °F - 57.2 °F 88% 30.12 in 10.0 mi South 5.8 mph - N/A   Clear
2:15 AM 60.8 °F - 57.2 °F 88% 30.12 in 10.0 mi South 3.5 mph - N/A   Clear
2:35 AM 60.8 °F - 57.2 °F 88% 30.12 in 10.0 mi Calm Calm - N/A   Clear
2:55 AM 60.8 °F - 57.2 °F 88% 30.11 in 10.0 mi Calm Calm - N/A   Clear
3:15 AM 60.8 °F - 59.0 °F 94% 30.12 in 10.0 mi Calm Calm - N/A   Clear
3:35 AM 60.8 °F - 59.0 °F 94% 30.12 in 10.0 mi Calm Calm - N/A   Clear
3:55 AM 60.8 °F - 59.0 °F 94% 30.11 in 10.0 mi Calm Calm - N/A   Clear
4:15 AM 60.8 °F - 57.2 °F 88% 30.11 in 10.0 mi South 4.6 mph - N/A   Clear
4:35 AM 60.8 °F - 57.2 °F 88% 30.11 in 10.0 mi Calm Calm - N/A   Clear
4:55 AM 60.8 °F - 55.4 °F 82% 30.12 in 10.0 mi Calm Calm - N/A   Clear
5:15 AM 59.0 °F - 57.2 °F 94% 30.12 in 10.0 mi North 4.6 mph - N/A   Clear
5:35 AM 60.8 °F - 55.4 °F 82% 30.12 in 10.0 mi NW 3.5 mph - N/A   Clear
5:55 AM 60.8 °F - 57.2 °F 88% 30.12 in 10.0 mi NW 4.6 mph - N/A   Clear
6:15 AM 60.8 °F - 57.2 °F 88% 30.12 in 10.0 mi West 3.5 mph - N/A   Clear
6:35 AM 59.0 °F - 57.2 °F 94% 30.13 in 10.0 mi North 3.5 mph - N/A   Clear
6:50 AM 59.0 °F - 55.4 °F 88% 30.13 in 15.0 mi SE 3.5 mph - N/A   Scattered Clouds
6:55 AM 60.8 °F - 57.2 °F 88% 30.14 in 10.0 mi SE 4.6 mph - N/A   Clear
7:50 AM 62.6 °F - 57.2 °F 82% 30.16 in 15.0 mi Variable 4.6 mph - N/A   Scattered Clouds
8:50 AM 66.2 °F - 59.0 °F 78% 30.16 in 15.0 mi Variable 4.6 mph - N/A   Scattered Clouds
9:50 AM 69.8 °F - 57.2 °F 64% 30.17 in 15.0 mi Variable 4.6 mph - N/A   Scattered Clouds
10:50 AM 73.4 °F - 60.8 °F 65% 30.18 in 15.0 mi Variable 4.6 mph - N/A   Partly Cloudy
11:50 AM 75.2 °F - 62.6 °F 65% 30.18 in 15.0 mi Variable 4.6 mph - N/A   Partly Cloudy
12:50 PM 75.2 °F - 62.6 °F 65% 30.16 in 15.0 mi Variable 5.8 mph - N/A   Scattered Clouds
2:50 PM 84.2 °F 83.0 °F 55.4 °F 37% 30.11 in 15.0 mi Variable 5.8 mph - N/A   Scattered Clouds
3:50 PM 87.8 °F - 51.8 °F 29% 30.09 in 15.0 mi Variable 5.8 mph - N/A   Scattered Clouds
4:47 PM 87.8 °F - 50.0 °F 27% 30.08 in 15.0 mi Variable 4.6 mph - N/A   Scattered Clouds
5:55 PM 87.8 °F - 48.2 °F 25% 30.07 in 15.0 mi Variable 4.6 mph - N/A   Scattered Clouds
6:58 PM 87.8 °F - 48.2 °F 25% 30.07 in 15.0 mi Variable 4.6 mph - N/A   Scattered Clouds
7:47 PM 77.0 °F - 55.4 °F 47% 30.11 in 15.0 mi SSE 17.3 mph 27.6 mph N/A   Scattered Clouds
8:47 PM 75.2 °F - 55.4 °F 50% 30.11 in 15.0 mi SSE 16.1 mph - N/A   Scattered Clouds
9:15 PM 75.2 °F - 55.4 °F 50% 30.13 in 10.0 mi East 8.1 mph 19.6 mph N/A   Clear
9:35 PM 73.4 °F - 55.4 °F 53% 30.13 in 10.0 mi SE 11.5 mph - N/A   Clear
9:55 PM 73.4 °F - 55.4 °F 53% 30.14 in 10.0 mi ESE 15.0 mph 19.6 mph N/A   Clear
10:15 PM 75.2 °F - 53.6 °F 47% 30.15 in 10.0 mi ESE 11.5 mph 20.7 mph N/A   Clear
10:35 PM 73.4 °F - 53.6 °F 50% 30.15 in 10.0 mi SSE 11.5 mph - N/A   Clear
10:55 PM 71.6 °F - 55.4 °F 57% 30.16 in 10.0 mi SE 4.6 mph - N/A   Clear
11:15 PM 69.8 °F - 55.4 °F 60% 30.15 in 10.0 mi SSE 5.8 mph - N/A   Clear
11:35 PM 68.0 °F - 57.2 °F 68% 30.15 in 10.0 mi ENE 3.5 mph - N/A   Clear
11:55 PM 66.2 °F - 55.4 °F 68% 30.16 in 10.0 mi SE 5.8 mph - N/A   Clear